Location: Seattle
(47.6064°N, 122.3308°W)
Time: 01:02:26
(UTC-08:00)

Tiros 1 - Pass Details

Date: 04 December 2020
Orbit: 630 x 663 km, 48.4° (Epoch: 28 January)

Event Time Altitude Azimuth Distance (km) Brightness Sun altitude
Rises 17:26:52 0° 283° (WNW) 2,996 11.6 -11.1°
Reaches altitude 10° 17:29:13 10° 282° (WNW) 2,081 10.7 -11.4°
Maximum altitude 17:34:02 78° 198° (SSW) 678 7.3 -12.2°
Enters shadow 17:38:39 11° 112° (ESE) 2,009 9.2 -12.9°
Drops below altitude 10° 17:38:47 10° 112° (ESE) 2,061 - -12.9°
Sets 17:41:07 0° 111° (ESE) 2,965 - -13.3°
